Location: ?sanag?dem
(16.9522°N, 81.1036°E)
Time: 23:41:45
(UTC+00:00)

Envisat - Pass Details

Date: 19 August 2024
Orbit: 762 x 764 km, 98.3° (Epoch: 16 September)

Event Time Altitude Azimuth Distance (km) Brightness Sun altitude
Rises 21:18:02 0° 17° (NNE) 3,217 6.8 -41.0°
Reaches altitude 10° 21:20:22 10° 20° (NNE) 2,290 5.9 -40.5°
Enters shadow 21:20:59 14° 21° (NNE) 2,049 5.6 -40.4°
